Stündliche Wetter Abramy

Heute, 23 Juni, Mittwoch

Zeit Temperatur Niederschläge Wind Luftdruck Luftfeuchtigkeit
00:00 +19°C° 0.1 mm 2 m/S 742 mmHg 93%
01:00 +19°C° 0 mm 2 m/S 742 mmHg 92%
02:00 +20°C° 1.1 mm 1 m/S 742 mmHg 92%
03:00 +21°C° 1.1 mm 1 m/S 742 mmHg 92%
04:00 +19°C° 1.1 mm 0 m/S 742 mmHg 93%
05:00 +22°C° 0.2 mm 1 m/S 743 mmHg 89%
06:00 +23°C° 0.2 mm 1 m/S 743 mmHg 86%
07:00 +24°C° 0.2 mm 1 m/S 743 mmHg 82%
08:00 +25°C° 0.3 mm 1 m/S 744 mmHg 78%
09:00 +26°C° 0.3 mm 1 m/S 744 mmHg 74%
10:00 +28°C° 0.3 mm 1 m/S 744 mmHg 70%
11:00 +28°C° 0.8 mm 1 m/S 744 mmHg 67%
12:00 +29°C° 0.8 mm 1 m/S 744 mmHg 65%
13:00 +30°C° 0.8 mm 1 m/S 744 mmHg 62%
14:00 +30°C° 0.4 mm 1 m/S 744 mmHg 62%
15:00 +30°C° 0.4 mm 1 m/S 744 mmHg 61%
16:00 +30°C° 0.4 mm 1 m/S 744 mmHg 60%
17:00 +29°C° 0.8 mm 1 m/S 744 mmHg 66%
18:00 +28°C° 0.8 mm 1 m/S 744 mmHg 72%
19:00 +27°C° 0.8 mm 1 m/S 744 mmHg 78%
20:00 +25°C° 0.9 mm 1 m/S 745 mmHg 83%
21:00 +24°C° 0.9 mm 2 m/S 745 mmHg 88%
22:00 +23°C° 0.9 mm 2 m/S 745 mmHg 92%
23:00 +21°C° 0.6 mm 2 m/S 745 mmHg 93%

Morgen, 24 Juni, Donnerstag

Zeit Temperatur Niederschläge Wind Luftdruck Luftfeuchtigkeit
00:00 +21°C° 0.6 mm 1 m/S 745 mmHg 94%
01:00 +21°C° 0.6 mm 1 m/S 744 mmHg 95%
02:00 +21°C° 0.1 mm 1 m/S 744 mmHg 95%
03:00 +21°C° 0.1 mm 1 m/S 744 mmHg 95%
04:00 +20°C° 0.1 mm 1 m/S 744 mmHg 96%
05:00 +22°C° 0 mm 1 m/S 744 mmHg 91%
06:00 +23°C° 0 mm 1 m/S 744 mmHg 87%
07:00 +25°C° 0 mm 1 m/S 744 mmHg 83%
08:00 +26°C° 0.2 mm 1 m/S 744 mmHg 77%
09:00 +28°C° 0.2 mm 1 m/S 744 mmHg 72%
10:00 +29°C° 0.2 mm 1 m/S 745 mmHg 66%
11:00 +30°C° 0.1 mm 1 m/S 744 mmHg 63%
12:00 +31°C° 0.1 mm 2 m/S 744 mmHg 59%
13:00 +32°C° 0.1 mm 2 m/S 744 mmHg 55%
14:00 +33°C° 0 mm 3 m/S 743 mmHg 55%
15:00 +33°C° 0 mm 3 m/S 743 mmHg 55%
16:00 +33°C° 0 mm 3 m/S 742 mmHg 56%
17:00 +31°C° 0.2 mm 3 m/S 742 mmHg 61%
18:00 +29°C° 0.2 mm 2 m/S 742 mmHg 67%
19:00 +28°C° 0.2 mm 2 m/S 741 mmHg 72%
20:00 +25°C° 1.9 mm 2 m/S 742 mmHg 77%
21:00 +23°C° 1.9 mm 2 m/S 742 mmHg 82%
22:00 +19°C° 1.9 mm 2 m/S 742 mmHg 87%
23:00 +19°C° 0 mm 2 m/S 742 mmHg 88%

übermorgen, 25 Juni, Freitag

Zeit Temperatur Niederschläge Wind Luftdruck Luftfeuchtigkeit
00:00 +19°C° 0 mm 2 m/S 742 mmHg 89%
01:00 +18°C° 0 mm 2 m/S 742 mmHg 90%
02:00 +18°C° 0 mm 2 m/S 742 mmHg 92%
03:00 +18°C° 0 mm 2 m/S 742 mmHg 94%
04:00 +18°C° 0 mm 2 m/S 742 mmHg 96%
05:00 +19°C° 0.1 mm 2 m/S 742 mmHg 92%
06:00 +19°C° 0.1 mm 2 m/S 742 mmHg 88%
07:00 +20°C° 0.1 mm 2 m/S 742 mmHg 85%
08:00 +21°C° 0.1 mm 2 m/S 742 mmHg 80%
09:00 +24°C° 0.1 mm 3 m/S 742 mmHg 75%
10:00 +25°C° 0.1 mm 3 m/S 742 mmHg 70%
11:00 +25°C° 0 mm 3 m/S 742 mmHg 68%
12:00 +26°C° 0 mm 3 m/S 742 mmHg 67%
13:00 +26°C° 0 mm 3 m/S 742 mmHg 65%
14:00 +25°C° 0 mm 4 m/S 742 mmHg 67%
15:00 +23°C° 0 mm 4 m/S 742 mmHg 70%
16:00 +22°C° 0 mm 5 m/S 742 mmHg 73%
17:00 +22°C° 0 mm 5 m/S 742 mmHg 75%
18:00 +21°C° 0 mm 4 m/S 742 mmHg 77%
19:00 +20°C° 0 mm 4 m/S 742 mmHg 79%
20:00 +20°C° 0 mm 4 m/S 742 mmHg 80%
21:00 +19°C° 0 mm 3 m/S 743 mmHg 80%
22:00 +19°C° 0 mm 3 m/S 743 mmHg 81%
23:00 +18°C° 0 mm 3 m/S 743 mmHg 83%

26 Juni, Samstag

Zeit Temperatur Niederschläge Wind Luftdruck Luftfeuchtigkeit
00:00 +18°C° 0 mm 3 m/S 743 mmHg 85%
01:00 +17°C° 0 mm 3 m/S 743 mmHg 88%
02:00 +17°C° 0 mm 3 m/S 743 mmHg 90%
03:00 +16°C° 0 mm 3 m/S 744 mmHg 93%
04:00 +16°C° 0 mm 3 m/S 744 mmHg 96%
05:00 +17°C° 0 mm 4 m/S 744 mmHg 90%
06:00 +18°C° 0 mm 4 m/S 744 mmHg 85%
07:00 +19°C° 0 mm 4 m/S 745 mmHg 80%
08:00 +20°C° 0 mm 4 m/S 745 mmHg 73%
09:00 +21°C° 0 mm 4 m/S 745 mmHg 66%
10:00 +22°C° 0 mm 4 m/S 745 mmHg 59%
11:00 +23°C° 0 mm 4 m/S 745 mmHg 56%
12:00 +24°C° 0 mm 3 m/S 745 mmHg 52%
13:00 +25°C° 0 mm 3 m/S 745 mmHg 49%
14:00 +25°C° 0 mm 3 m/S 745 mmHg 49%
15:00 +25°C° 0 mm 3 m/S 745 mmHg 49%
16:00 +25°C° 0 mm 3 m/S 745 mmHg 49%
17:00 +24°C° 0 mm 3 m/S 745 mmHg 56%
18:00 +22°C° 0 mm 3 m/S 745 mmHg 62%
19:00 +20°C° 0 mm 2 m/S 745 mmHg 68%
20:00 +19°C° 0 mm 2 m/S 745 mmHg 69%
21:00 +18°C° 0 mm 2 m/S 746 mmHg 69%
22:00 +17°C° 0 mm 2 m/S 746 mmHg 70%
23:00 +16°C° 0 mm 2 m/S 746 mmHg 71%

27 Juni, Sonntag

Zeit Temperatur Niederschläge Wind Luftdruck Luftfeuchtigkeit
00:00 +15°C° 0 mm 2 m/S 746 mmHg 72%
01:00 +15°C° 0 mm 2 m/S 746 mmHg 73%
02:00 +15°C° 0 mm 1 m/S 746 mmHg 74%
03:00 +14°C° 0 mm 1 m/S 746 mmHg 76%
04:00 +14°C° 0 mm 1 m/S 746 mmHg 77%
05:00 +16°C° 0 mm 1 m/S 746 mmHg 73%
06:00 +19°C° 0 mm 1 m/S 746 mmHg 68%
07:00 +21°C° 0 mm 1 m/S 747 mmHg 63%
08:00 +21°C° 0 mm 2 m/S 747 mmHg 58%
09:00 +23°C° 0 mm 2 m/S 747 mmHg 54%
10:00 +25°C° 0 mm 2 m/S 747 mmHg 49%
11:00 +25°C° 0 mm 2 m/S 747 mmHg 47%
12:00 +26°C° 0 mm 2 m/S 747 mmHg 45%
13:00 +26°C° 0 mm 2 m/S 747 mmHg 43%
14:00 +26°C° 0 mm 2 m/S 746 mmHg 44%
15:00 +26°C° 0 mm 2 m/S 746 mmHg 44%
16:00 +27°C° 0 mm 1 m/S 746 mmHg 44%
17:00 +25°C° 0 mm 1 m/S 746 mmHg 51%
18:00 +24°C° 0 mm 1 m/S 746 mmHg 58%
19:00 +23°C° 0 mm 1 m/S 746 mmHg 65%
20:00 +22°C° 0 mm 1 m/S 746 mmHg 65%
21:00 +21°C° 0 mm 1 m/S 746 mmHg 66%
22:00 +20°C° 0 mm 1 m/S 746 mmHg 67%
23:00 +19°C° 0 mm 1 m/S 747 mmHg 69%

28 Juni, Montag

Zeit Temperatur Niederschläge Wind Luftdruck Luftfeuchtigkeit
00:00 +19°C° 0 mm 1 m/S 747 mmHg 71%
01:00 +16°C° 0 mm 0 m/S 747 mmHg 74%
02:00 +16°C° 0 mm 0 m/S 747 mmHg 75%
03:00 +16°C° 0 mm 0 m/S 747 mmHg 75%
04:00 +15°C° 0 mm 0 m/S 747 mmHg 76%
05:00 +17°C° 0 mm 0 m/S 747 mmHg 72%
06:00 +19°C° 0 mm 0 m/S 747 mmHg 67%
07:00 +22°C° 0 mm 1 m/S 747 mmHg 63%
08:00 +24°C° 0 mm 1 m/S 747 mmHg 58%
09:00 +25°C° 0 mm 1 m/S 747 mmHg 54%
10:00 +27°C° 0 mm 1 m/S 747 mmHg 49%
11:00 +27°C° 0 mm 1 m/S 747 mmHg 47%
12:00 +26°C° 0 mm 0 m/S 747 mmHg 45%
13:00 +27°C° 0 mm 0 m/S 747 mmHg 43%
14:00 +27°C° 0 mm 0 m/S 747 mmHg 43%
15:00 +26°C° 0 mm 0 m/S 746 mmHg 43%
16:00 +26°C° 0 mm 0 m/S 746 mmHg 43%
17:00 +27°C° 0 mm 1 m/S 746 mmHg 49%
18:00 +26°C° 0 mm 1 m/S 746 mmHg 55%
19:00 +25°C° 0 mm 1 m/S 746 mmHg 61%
20:00 +24°C° 0 mm 1 m/S 746 mmHg 62%
21:00 +23°C° 0 mm 1 m/S 746 mmHg 63%
22:00 +21°C° 0 mm 2 m/S 746 mmHg 64%
23:00 +20°C° 0 mm 2 m/S 746 mmHg 66%
Mehr zeigen

Wir brauchen deine Erlaubnis

Meteoprog und unser Service Anbieter werden persönliche Daten aufbewahren, so wie Cookies, Geräte Bezeichnung oder ähnliche Technologien von deinem Gerät und Prozess, so wie Persönliche Daten Inhalte und Werbungen, genauso wie social Media und den Verkehr zu analysieren.

  • Aufbewahrung und/oder Zugang zu deiner Geräte Informationen.

    Cookies, Geräte Bezeichnung oder andere Informationen, können aufbewahrt oder Zugang zu deinem Gerät erhalten, für den Grund, der oben angegeben wird.

  • Personalisierte Werbung und Inhalte, Messungen, Einblick in das Publikum und Produkt Entwicklung.

    Werbungen und Inhalte können personalisiert werden, basierend auf ein Profil. Mehr Daten können besser personalisierte Werbungen und Inhalte hinzufügen. Werbung und Inhalte können gezeigt und gemessen werden. Einblicke über das Publikum, welche die Werbung gesehen haben und den Inhalt, können abgeleitet werden. So wie Daten können genutzt werden, um es zu verbessern oder die Benutzer Erfahrung zu verbessern das System und die Software.

Wenn du “Ich stimme zu” klickst, erlaubst du uns, die Cookies zu benutzen die Geräte Bezeichnung, den Web oder ähnliche Technologien zu benutzen. Deine Settings, können in deinem Gerät bei deinem Browser geändert werden.

Für den bestimmten Zweck, berechtigten Interessen beruhen darauf, mehr als auf den Inhalt. Du kannst mehr darüber in unseren Privaten und Cookie Politik lesen.